Вернуться в каталог

TELECOM 1B

АктивенСвязьGEO
NORAD 15678·PAYLOAD·🇫🇷 France

Запущен May 8, 1985 с Guiana Space Centre

Loading…

TLE

СвежийSource: Space-Track

Эпоха: Sep 13, 2026, 23:58 UTC

1 15678U 85035B   26256.99912975 -.00000230  00000-0  00000-0 0  9996
2 15678  10.0015 320.3639 0001938 297.1316  65.9053  1.00307139137915

Отслеживайте TELECOM 1B в реальном времени с AllMySat

Download on the App Store